User: anonymous   Login
Location: Betra
(48.4113°N, 8.6634°E)
Time: 13:14:38
(UTC+00:00)
Language:

Cosmos 1954 Rocket - Orbit

View from above orbital plane
View from above orbital plane
View from above satellite
View from above satellite

Ground track
Ground track

The orbit data is extracted from the following two-line orbital elements,

1 19257U 88053B   24195.92779608  .00000513  00000-0  17707-3 0  9991
2 19257  74.0475 144.8307 0019156 117.4768 299.1167 14.38220643889773
Epoch (UTC): 13 July 2024 22:16:01
Eccentricity: 0.0019156
inclination: 74.0475°
perigee height: 751 km
apogee height: 778 km
right ascension of ascending node: 144.8307°
argument of perigee: 117.4768°
revolutions per day: 14.38220643
mean anomaly at epoch: 299.1167°
orbit number at epoch: 88977

The dashed part of the orbit path shows where the satellite is in the earth's shadow,  

DLR